User: anonymous   Login
Location: Byszew
(52.1813°N, 19.2693°E)
Time: 00:34:57
(UTC+00:00)
Language:

Cosmos 2123 Rocket - Orbit

View from above orbital plane
View from above orbital plane
View from above satellite
View from above satellite

Ground track
Ground track

The orbit data is extracted from the following two-line orbital elements,

1 21090U 91007B   21138.45171258  .00000041  00000-0  26705-4 0  9996
2 21090  82.9221 252.6934 0020392 357.6059   2.4997 13.76403090520607
Epoch (UTC): 18 May 2021 10:50:27
Eccentricity: 0.0020392
inclination: 82.9221°
perigee height: 961 km
apogee height: 991 km
right ascension of ascending node: 252.6934°
argument of perigee: 357.6059°
revolutions per day: 13.76403090
mean anomaly at epoch: 2.4997°
orbit number at epoch: 52060

The dashed part of the orbit path shows where the satellite is in the earth's shadow,  

DLR